{"data":{"norad_id":53542,"intl_designator":"2022-101R","name":"STARLINK-4489","alt_names":[],"object_type":"PAYLOAD","status":"ACTIVE","operator":null,"country":"US","launch_date":"2022-08-19","launch_site_code":"AFETR","launch_vehicle":null,"mission":null,"orbit_class":"UNKNOWN","rcs_meters":null,"size_class":null,"mass_kg":null,"dimensions":null,"purposes":["comms"],"wikipedia_slug":null,"has_3d_model":false,"image_url":null,"decayed_at":null,"tle_current":{"epoch":"2026-05-25T04:52:29.896320Z","epoch_age_seconds":50885,"freshness":"FRESH","line1":"1 53542U 22101R   26145.20312380 -.00001648  00000+0 -85485-4 0  9996","line2":"2 53542  53.2135  80.6373 0001390 101.4646 258.6503 15.08828940208545","mean_motion":15.0882894,"eccentricity":0.000139,"inclination_deg":53.2135,"raan_deg":80.6373,"arg_perigee_deg":101.4646,"mean_anomaly_deg":258.6503,"bstar":-8.5485e-5,"rev_number":20854,"period_min":95.438254252997,"perigee_km":538.81560509286,"apogee_km":540.73878523911,"semimajor_km":6917.914195166,"source":"CELESTRAK","updated_at":"2026-05-25T13:38:17.442187Z"}}}